User: anonymous   Login
Location: NJAA Observatory
(40.6819°N, 74.8979°W)
Time: 00:01:59
(UTC-05:00)
Language:

Cosmos 1328 Rocket - Orbit

View from above orbital plane
View from above orbital plane
View from above satellite
View from above satellite

Ground track
Ground track

The orbit data is extracted from the following two-line orbital elements,

1 12988U 81117B   15060.27595365  .00000555  00000-0  63119-4 0  9999
2 12988 082.5264 140.0947 0019766 098.4254 318.8091 14.84330485795352
Epoch (UTC): 01 March 2015 06:37:22
Eccentricity: 0.0019766
inclination: 82.5264°
perigee height: 602 km
apogee height: 629 km
right ascension of ascending node: 140.0947°
argument of perigee: 98.4254°
revolutions per day: 14.84330485
mean anomaly at epoch: 318.8091°
orbit number at epoch: 79535

The dashed part of the orbit path shows where the satellite is in the earth's shadow,  

DLR